Regional Weather Roundup
Issued by NWS

Home | Current Version | Previous Version | Graphics & Text | Print | Product List | Glossary Off
Versions: 1 2 3 4 5 6 7 8 9 10 11 12 13 14 15 16 17 18 19 20 21 22 23 24 25 26 27 28 29 30 31 32 33 34 35 36 37 38 39 40 41 42 43 44 45 46 47 48 49 50

000
ASUS45 KBOU 230107
RWRCO

WEATHER ROUNDUP FOR COLORADO
NATIONAL WEATHER SERVICE DENVER/BOULDER CO
700 PM MDT TUE JUL 22 2014

NOTE: "FAIR" INDICATES FEW OR NO CLOUDS BELOW 12000 FEET WITH NO
SIGNIFICANT WEATHER AND/OR OBSTRUCTIONS TO VISIBILITY.

COZ001>005-013-030-031-230200-
...NORTHWEST COLORADO...

CITY           SKY/WX    TMP DP  RH WIND       PRES   REMARKS
CRAIG          SUNNY     93  20   7 NE5       30.29F
HAYDEN         SUNNY     90  27  10 CALM      30.33F
MEEKER         SUNNY     92  23   8 NE7       30.29F
MOUNT WERNER   NOT AVBL
STEAMBOAT SPGS SUNNY     88  27  11 CALM      30.37S
WALDEN         SUNNY     79  27  14 N6        30.50S
$$

COZ006>008-011-230200-
...WEST CENTRAL VALLEYS...

CITY           SKY/WX    TMP DP  RH WIND       PRES   REMARKS
GRAND JUNCTION SUNNY     95  29   9 W8        30.13F
MONTROSE       MOSUNNY   95  29   9 NW8       30.23S
EAGLE          MOSUNNY   91  28  10 VRB5      30.31F
RIFLE          SUNNY     97  18   6 N3        30.20S
DELTA          MOSUNNY  101  20   5 SW6       30.16F
NUCLA          MOSUNNY   95  23   7 N6        30.25S
$$

COZ017>023-064>068-230200-
...SOUTHWEST COLORADO...

CITY           SKY/WX    TMP DP  RH WIND       PRES   REMARKS
DURANGO        MOSUNNY   94  26   9 NE15      30.29R
CORTEZ         SUNNY     95  28   9 SW6       30.22R
PAGOSA SPRINGS MOSUNNY   80  27  14 NW16G26   30.43R
TELLURIDE      PTSUNNY   79  27  14 SE6       30.55S
WOLF CREEK PAS NOT AVBL
$$

COZ009-010-012-014-032>034-037-058>063-230200-
...CENTRAL COLORADO...

CITY           SKY/WX    TMP DP  RH WIND       PRES   REMARKS
ASPEN          MOSUNNY   86  22   9 W5        30.41S
BUENA VISTA    MOSUNNY   82  35  18 E14G20    30.46R
COPPER MTN     PTSUNNY   64  21  19 SE13      30.85S
BERTHOUD PASS  FAIR      54  39  58 E20G28    30.92S
COTTONWOOD PAS PTSUNNY   79  28  15 SE12G17   30.64S
GUNNISON       SUNNY     86  25  10 N5        30.42S
KREMMLING      SUNNY     88  18   7 N8        30.41S
LEADVILLE      MOSUNNY   69  27  20 E5        30.63R
MONARCH PASS   MOSUNNY   64  32  29 NE14G20   30.93S
SALIDA         MOSUNNY  N/A N/A N/A E16G25    30.47S
SUNLIGHT       SUNNY     72  23  16 CALM      30.74S
WILKERSON PASS PTSUNNY   61  32  33 E10G18    30.82S
$$

COZ069>075-230200-
...SAN LUIS VALLEY/SANGRE DE CRISTO MOUNTAINS...

CITY           SKY/WX    TMP DP  RH WIND       PRES   REMARKS
ALAMOSA        SUNNY     83  44  25 E12       30.41S
LA VETA PASS   SUNNY     64  36  34 E14G22    30.70R
SAGUACHE       MOSUNNY   82  37  20 SE15      30.44R
$$

COZ035-036-038>040-230200-
...NORTHERN COLORADO FRONT RANGE...

CITY           SKY/WX    TMP DP  RH WIND       PRES   REMARKS
DENVER INTL AP MOSUNNY   93  44  18 SE10      30.27S
DMNS CITY PARK   N/A     91  47  21 E2        30.26S
AURORA         PTSUNNY   88  51  27 SE6       30.30S
FRONT RANGE AP PTSUNNY   93  46  20 E14       30.30R
ERIE MUNI ARPT MOSUNNY   90  49  24 NW5       30.25R
BOULDER MUN AP MOSUNNY   90  52  27 N8        30.26S
CENTENNIAL     PTSUNNY   89  43  20 SW13      30.32R
BROOMFIELD     NOT AVBL
FORT COLLINS   SUNNY     91  54  27 NE8       30.23S
LONGMONT       SUNNY     93  52  24 N6        30.26S
$$

COZ041-046-047-076>085-087-088-230200-
...PIKES PEAK/PALMER DIVIDE AND SOUTHERN FOOTHILLS...

CITY           SKY/WX    TMP DP  RH WIND       PRES   REMARKS
COLO. SPRINGS  PTSUNNY   87  47  24 E6        30.36S
A. F. ACADEMY  PTSUNNY   84  47  27 VRB7      30.39R
ELLICOTT       PTSUNNY   88  42  20 SE8       30.34S
FALCON         PTSUNNY   84  46  26 SE5       30.43S
FORT CARSON    MOSUNNY   87  48  25 E7        30.32S
LIMON          MOSUNNY   87  49  26 E12       30.28S
MONUMENT HILL  PTSUNNY   75  50  41 S5        30.44R
TRINIDAD       SUNNY     90  40  17 E12G18    30.30R
$$

COZ042>045-048>051-090-091-230200-
...NORTHEAST COLORADO...

CITY           SKY/WX    TMP DP  RH WIND       PRES   REMARKS
GREELEY ARPT   SUNNY     84  55  37 E9        30.24R
AKRON          SUNNY     88  58  36 E15G21    30.25R
BURLINGTON     SUNNY     92  57  30 E10       30.21R
WRAY             N/A     92  58  31 E14       30.18F
STERLING       SUNNY     91  63  38 SE9       30.21R
HOLYOKE        SUNNY     88  59  37 E12       30.21R
FORT MORGAN    SUNNY     90  54  29 E12       30.25R
$$

COZ086-089-092>099-230200-
...SOUTHEAST COLORADO...

CITY           SKY/WX    TMP DP  RH WIND       PRES   REMARKS
PUEBLO         SUNNY     93  50  23 SE10      30.21R
LA JUNTA       SUNNY     94  52  24 SE10      30.18R
LAMAR          SUNNY     96  56  26 E12       30.12R
SPRINGFIELD      N/A     89  57  33 SE12      30.20R
$$



USA.gov is the U.S. government's official web portal to all federal, state and local government web resources and services.